User: anonymous   Login
Location: Demmingen
(48.6757°N, 10.4375°E)
Time: 13:01:22
(UTC+00:00)
Language:

Sich 1 Rocket - Orbit

View from above orbital plane
View from above orbital plane
View from above satellite
View from above satellite

Ground track
Ground track

The orbit data is extracted from the following two-line orbital elements,

1 23659U 95046C   24198.68199972  .00000689  00000-0  88919-4 0  9996
2 23659  82.5287  64.6433 0026430  52.6841   4.7834 14.79348550556408
Epoch (UTC): 16 July 2024 16:22:04
Eccentricity: 0.0026430
inclination: 82.5287°
perigee height: 613 km
apogee height: 650 km
right ascension of ascending node: 64.6433°
argument of perigee: 52.6841°
revolutions per day: 14.79348550
mean anomaly at epoch: 4.7834°
orbit number at epoch: 55640

The dashed part of the orbit path shows where the satellite is in the earth's shadow,  

DLR